Regional Weather Roundup
Issued by NWS

Home | Current Version | Previous Version | Graphics & Text | Print | Product List | Glossary On
Versions: 1 2 3 4 5 6 7 8 9 10 11 12 13 14 15 16 17 18 19 20 21 22 23 24 25 26 27 28 29 30 31 32 33 34 35 36 37 38 39 40 41 42 43 44 45 46 47 48 49 50
000
ASUS43 KOAX 221702
RWRNE

WEATHER ROUNDUP FOR NEBRASKA
NATIONAL WEATHER SERVICE OMAHA NE
1200 PM CDT WED MAR 22 2017

NOTES: SATELLITE DATA IS BEING USED TO AUGMENT CLOUD COVER ABOVE
       12000 FEET.
       "FAIR" INDICATES FEW OR NO CLOUDS BELOW 12,000 FEET WITH NO
       SIGNIFICANT WEATHER AND/OR OBSTRUCTIONS TO VISIBILITY.

  * THESE STATIONS DO NOT REPORT WEATHER SUCH AS RAIN...SNOW OR FOG.

NEZ001>004-019>022-054>056-221800-
NEBRASKA PANHANDLE

CITY           SKY/WX    TMP DP  RH WIND       PRES   REMARKS
SCOTTSBLUFF    CLOUDY    51  30  44 SE14      29.98F
ALLIANCE       CLOUDY    47  34  60 S30G36    30.00F
CHADRON        SUNNY     52  34  50 SW26G35   29.93F
KIMBALL        CLOUDY    47  32  56 S20       30.02F
SIDNEY         CLOUDY    48  33  56 S23G30    30.05F
$$

NEZ057>060-069>072-079>082-221800-
SOUTHWEST NEBRASKA

CITY           SKY/WX    TMP DP  RH WIND       PRES   REMARKS
NORTH PLATTE   CLOUDY    42  26  53 S17G26    30.17F
IMPERIAL       CLOUDY    48  28  46 S22       30.12F
LEXINGTON      CLOUDY    41  23  48 S18       30.22F
MCCOOK         CLOUDY    42  25  50 SE15      30.20F
OGALLALA       CLOUDY    50  30  46 S16G28    30.10F
$$

NEZ005>010-023>029-035>040-094-221800-
NORTH CENTRAL NEBRASKA

CITY           SKY/WX    TMP DP  RH WIND       PRES   REMARKS
VALENTINE      CLOUDY    40  28  62 S20G31    30.10F WCI  30
AINSWORTH      CLOUDY    37  31  79 S24G30    30.14F WCI  25
BROKEN BOW     CLOUDY    42  21  43 S25G35    30.20F
O`NEILL        CLOUDY    34  28  77 SE15G22   30.26F WCI  24
ORD            PTSUNNY   41  23  48 S16G26    30.23F
THEDFORD       CLOUDY    42  27  54 S23G29    30.14F
$$

NEZ041-046>049-061>064-073>077-083>087-221800-
SOUTH CENTRAL NEBRASKA

CITY           SKY/WX    TMP DP  RH WIND       PRES   REMARKS
GRAND ISLAND   PTSUNNY   44  23  43 SE17      30.29F
AURORA         MOSUNNY   45  19  35 SE16      30.29F
HASTINGS       CLOUDY    43  22  43 SE14      30.29F
HEBRON         CLOUDY    46  20  37 SE13      30.32F
HOLDREGE       CLOUDY    41  22  47 SE17      30.24F
KEARNEY *      CLOUDY    43  19  39 SE17      30.27F
YORK           CLOUDY    43  18  36 SE16      30.30F
$$

NEZ011>018-030>034-042>045-221800-
NORTHEAST NEBRASKA

CITY           SKY/WX    TMP DP  RH WIND       PRES   REMARKS
NORFOLK        CLOUDY    37  24  59 SE16      30.31F WCI  28
ALBION         CLOUDY    40  21  47 S15       30.30F WCI  31
BLAIR          CLOUDY    41  23  49 E14       30.38F
FREMONT        CLOUDY    40  23  50 E14       30.37F WCI  33
TEKAMAH        CLOUDY    38  22  52 SE17      30.40F WCI  28
WAYNE          CLOUDY    35  26  69 SE13      30.37S WCI  26
$$

NEZ050>053-065>068-078-088>093-221800-
SOUTHEAST NEBRASKA

CITY           SKY/WX    TMP DP  RH WIND       PRES   REMARKS
LINCOLN        MOSUNNY   45  18  34 SE15      30.36F
OMAHA EPPLEY   CLOUDY    40  23  50 SE12      30.41F WCI  33
BEATRICE       CLOUDY    48  22  36 SE13G18   30.33F
FALLS CITY     CLOUDY    45  21  38 E10       30.38F
NEBRASKA CITY  CLOUDY    44  12  27 E9        30.38F
PLATTSMOUTH    CLOUDY    40  22  50 E9        30.39F WCI  33
$$

NEZ044-045-051>053-067-221800-
OMAHA AREA

CITY           SKY/WX    TMP DP  RH WIND       PRES   REMARKS
OMAHA EPPLEY   CLOUDY    40  23  50 SE12      30.41F WCI  33
BLAIR          CLOUDY    41  23  49 E14       30.38F
FREMONT        CLOUDY    40  23  50 E14       30.37F WCI  33
MILLARD        CLOUDY    42  26  51 SE12      30.40F
OFFUTT AFB     CLOUDY    41  23  47 E8        30.40F
PLATTSMOUTH    CLOUDY    40  22  50 E9        30.39F WCI  33
WAHOO          FAIR      42  22  45 SE16      30.36F
$$




USA.gov is the U.S. government's official web portal to all federal, state and local government web resources and services.